Simultaneous Nadir Overpasses (SNOs) Predictions

Prediction of SNOs between LANDSAT-8 and METOP-B Satellite Orbit:

Table of predicted SNOs for the next 14.0 days since TLE Epoch: 7/24/2021
Index Date (LANDSAT-8) Time (LANDSAT-8) Lat,Lon (LANDSAT-8) SZA (LANDSAT-8 ) Date (METOP-B) Time (METOP-B) Lat,Lon (METOP-B) SZA (METOP-B ) Distance(km) Time Diff (sec)
1 07/24/2021 05:40:10 -81.11, -45.13 116.72 07/24/2021 05:40:06 -81.11, -45.18 116.72 0.97 4
2 07/24/2021 06:29:35 81.14, 122.99 63.37 07/24/2021 06:30:44 81.15, 123.18 63.42 3.30 69
3 07/27/2021 00:25:01 81.09,-146.74 63.83 07/27/2021 00:23:50 81.09,-146.78 63.80 0.81 71
4 07/27/2021 01:14:26 -81.13, 21.59 116.06 07/27/2021 01:14:28 -81.13, 21.63 116.06 0.79 2
5 07/29/2021 19:59:16 81.10, -80.09 64.52 07/29/2021 19:58:11 81.10, -79.99 64.51 1.85 65
6 07/29/2021 20:48:42 -81.12, 87.90 115.42 07/29/2021 20:48:50 -81.13, 88.05 115.40 2.53 8
7 08/01/2021 15:33:32 81.11, -13.49 65.24 08/01/2021 15:32:34 81.10, -13.60 65.20 2.08 58
8 08/01/2021 16:22:59 -81.11, 154.18 114.75 08/01/2021 16:23:14 -81.12, 154.07 114.75 1.88 15
9 08/04/2021 11:07:49 81.10, 52.72 65.95 08/04/2021 11:06:57 81.10, 52.78 65.94 1.17 52



Historial Predications of SNOs between LANDSAT-8 and METOP-B
